Quillayute, WA
on Saturday, February 9, 2013

Saturday
Previous Day Next Day
Daily Summary
 ActualAverageRecord
Temperature
Mean Temperature °F 42°F  
Max Temperature 49°F 49°F 64°F (1970)
Min Temperature 39°F 35°F 25°F (1989)
Degree Days
Heating Degree Days 21 23  
Month to date heating degree days 192 207  
Since 1 July heating degree days 3300 3412  
Cooling Degree Days 0 0  
Month to date cooling degree days 0 0  
Year to date cooling degree days 0 0  
Moisture
Dew Point 40°F   
Average Humidity 86    
Maximum Humidity 92    
Minimum Humidity 80    
Precipitation
Precipitation 0.02 in 0.39 in 3.18 in (1990)
Month to date precipitation 2.01 3.49  
Year to date precipitation 12.35 18.10  
Wind
Wind Speed 3 mph   
Max Wind Speed 7 mph   
Max Gust Speed 9 mph   
Visibility 3 miles   
Events Fog   

Key: T is trace of precipitation, MM is missing value
Source: NWS Daily Summary
Time(PST)TemperatureDew PointHumidity Pressure Visibility Wind DirectionWind SpeedGust SpeedPrecipitationEvents Conditions
12:17 AM 39.2°F 37.4°F 93% 30.28 in 4.0 miles Calm Calm - N/A   Overcast
12:44 AM 41.0°F 37.4°F 87% 30.27 in 2.0 miles East 4.6 mph - N/A   Overcast
12:53 AM 41.0°F 37.0°F 86% 30.28 in 1.5 miles Calm Calm - N/A   Overcast
1:09 AM 41.0°F 37.4°F 87% 30.28 in 1.0 miles East 3.5 mph - N/A   Overcast
1:27 AM 41.0°F 37.4°F 87% 30.27 in 2.0 miles Calm Calm - 0.01 in   Overcast
1:35 AM 41.0°F 37.4°F 87% 30.27 in 1.2 miles Calm Calm - 0.01 in   Overcast
1:53 AM 41.0°F 37.9°F 89% 30.28 in 1.2 miles Calm Calm - 0.01 in   Overcast
2:29 AM 41.0°F 37.4°F 87% 30.28 in 1.8 miles Calm Calm - N/A   Overcast
2:37 AM 41.0°F 37.4°F 87% 30.28 in 2.0 miles ENE 3.5 mph - N/A   Overcast
2:53 AM 41.0°F 37.0°F 86% 30.28 in 3.0 miles Calm Calm - N/A   Overcast
3:08 AM 41.0°F 37.4°F 87% 30.27 in 2.0 miles Calm Calm - N/A   Overcast
3:16 AM 41.0°F 37.4°F 87% 30.27 in 1.8 miles Calm Calm - N/A   Overcast
3:20 AM 41.0°F 37.4°F 87% 30.27 in 2.0 miles Calm Calm - N/A   Overcast
3:53 AM 41.0°F 37.9°F 89% 30.28 in 1.8 miles Calm Calm - N/A   Overcast
4:02 AM 41.0°F 37.4°F 87% 30.27 in 2.0 miles Calm Calm - N/A   Overcast
4:16 AM 41.0°F 37.4°F 87% 30.27 in 3.0 miles East 3.5 mph - N/A   Overcast
4:24 AM 41.0°F 37.4°F 87% 30.27 in 2.5 miles East 3.5 mph - N/A   Overcast
4:34 AM 41.0°F 37.4°F 87% 30.27 in 1.2 miles East 3.5 mph - N/A   Overcast
4:53 AM 41.0°F 37.9°F 89% 30.28 in 0.8 miles Calm Calm - N/A   Overcast
5:05 AM 41.0°F 37.4°F 87% 30.27 in 1.0 miles Calm Calm - N/A   Mist
5:53 AM 41.0°F 37.9°F 89% 30.27 in 1.0 miles ENE 4.6 mph - 0.01 in   Mist
6:01 AM 41.0°F 37.4°F 87% 30.26 in 0.8 miles East 4.6 mph - N/A   Mist
6:22 AM 41.0°F 37.4°F 87% 30.26 in 1.0 miles East 4.6 mph - N/A   Mist
6:53 AM 41.0°F 37.4°F 87% 30.26 in 1.2 miles ENE 3.5 mph - N/A   Overcast
7:09 AM 41.0°F 37.4°F 87% 30.26 in 1.2 miles East 3.5 mph - N/A   Overcast
7:25 AM 41.0°F 37.4°F 87% 30.26 in 1.8 miles Calm Calm - 0.00 in   Overcast
7:33 AM 41.0°F 37.4°F 87% 30.26 in 2.0 miles East 3.5 mph - 0.00 in   Overcast
7:50 AM 41.0°F 37.4°F 87% 30.26 in 1.2 miles East 3.5 mph - 0.00 in   Overcast
7:53 AM 41.0°F 37.9°F 89% 30.27 in 1.0 miles ENE 3.5 mph - 0.00 in   Overcast
8:18 AM 41.0°F 37.4°F 87% 30.27 in 1.5 miles Calm Calm - N/A   Overcast
8:31 AM 41.0°F 37.4°F 87% 30.27 in 2.5 miles East 3.5 mph - N/A   Overcast
8:38 AM 42.8°F 37.4°F 81% 30.27 in 4.0 miles ENE 3.5 mph - N/A   Overcast
8:53 AM 42.1°F 39.0°F 89% 30.28 in 4.0 miles Calm Calm - N/A   Overcast
9:43 AM 42.8°F 39.2°F 87% 30.27 in 2.5 miles Calm Calm - N/A   Overcast
9:53 AM 43.0°F 39.9°F 89% 30.28 in 3.0 miles Calm Calm - N/A   Overcast
10:04 AM 44.6°F 39.2°F 81% 30.27 in 4.0 miles Calm Calm - N/A   Overcast
10:53 AM 45.0°F 41.0°F 86% 30.27 in 5.0 miles Calm Calm - N/A   Overcast
11:07 AM 44.6°F 41.0°F 87% 30.27 in 1.8 miles Calm Calm - N/A   Overcast
11:18 AM 46.4°F 41.0°F 81% 30.27 in 1.0 miles ESE 3.5 mph - N/A   Haze
11:29 AM 46.4°F 42.8°F 87% 30.27 in 0.8 miles Calm Calm - N/A   Overcast
11:53 AM 46.0°F 42.1°F 86% 30.27 in 0.8 miles Calm Calm - N/A   Overcast
12:38 PM 46.4°F 42.8°F 87% 30.26 in 1.0 miles Calm Calm - 0.01 in   Mist
12:53 PM 46.9°F 43.0°F 86% 30.27 in 1.5 miles SSW 3.5 mph - 0.01 in   Overcast
1:00 PM 48.2°F 44.6°F 87% 30.26 in 1.0 miles SSW 3.5 mph - N/A   Mist
1:07 PM 46.4°F 42.8°F 87% 30.26 in 0.5 miles WSW 3.5 mph - N/A Fog Fog
1:33 PM 46.4°F 44.6°F 93% 30.26 in 1.5 miles Calm Calm - N/A   Overcast
1:38 PM 48.2°F 44.6°F 87% 30.26 in 3.0 miles SW 4.6 mph - N/A   Overcast
1:53 PM 48.0°F 43.0°F 83% 30.27 in 5.0 miles WSW 3.5 mph - N/A   Haze
2:17 PM 48.2°F 42.8°F 82% 30.26 in 2.0 miles WSW 5.8 mph - N/A   Haze
2:27 PM 48.2°F 42.8°F 82% 30.26 in 5.0 miles West 4.6 mph - N/A   Haze
2:38 PM 48.2°F 42.8°F 82% 30.27 in 5.0 miles West 4.6 mph - N/A   Haze
2:53 PM 48.9°F 43.0°F 80% 30.27 in 5.0 miles West 5.8 mph - N/A   Haze
3:04 PM 48.2°F 42.8°F 82% 30.26 in 5.0 miles West 4.6 mph - N/A   Haze
3:18 PM 48.2°F 42.8°F 82% 30.26 in 5.0 miles NNW 3.5 mph - N/A   Haze
3:45 PM 48.2°F 42.8°F 82% 30.27 in 5.0 miles WNW 4.6 mph - N/A   Haze
3:53 PM 48.0°F 42.1°F 80% 30.28 in 5.0 miles WNW 4.6 mph - N/A   Haze
4:31 PM 48.2°F 42.8°F 82% 30.27 in 5.0 miles West 3.5 mph - N/A   Haze
4:39 PM 46.4°F 42.8°F 87% 30.27 in 5.0 miles Calm Calm - N/A   Haze
4:53 PM 48.0°F 42.1°F 80% 30.28 in 5.0 miles Calm Calm - N/A   Haze
5:13 PM 46.4°F 42.8°F 87% 30.27 in 5.0 miles Calm Calm - N/A   Overcast
5:23 PM 46.4°F 42.8°F 87% 30.27 in 4.0 miles Calm Calm - N/A   Haze
5:53 PM 46.0°F 42.1°F 86% 30.28 in 5.0 miles Calm Calm - N/A   Overcast
6:24 PM 44.6°F 42.8°F 93% 30.27 in 5.0 miles Calm Calm - N/A   Overcast
6:31 PM 44.6°F 41.0°F 87% 30.27 in 5.0 miles Calm Calm - N/A   Overcast
6:43 PM 44.6°F 39.2°F 81% 30.27 in 4.0 miles North 3.5 mph - N/A   Mostly Cloudy
6:53 PM 44.1°F 39.9°F 85% 30.28 in 6.0 miles NNW 3.5 mph - N/A   Mostly Cloudy
7:46 PM 42.8°F 39.2°F 87% 30.29 in 6.0 miles NW 4.6 mph - N/A   Overcast
7:53 PM 43.0°F 39.0°F 86% 30.30 in 6.0 miles NW 3.5 mph - N/A   Overcast
8:53 PM 43.0°F 39.9°F 89% 30.30 in 6.0 miles North 3.5 mph - N/A   Overcast
9:53 PM 44.1°F 39.9°F 85% 30.31 in 7.0 miles North 4.6 mph - N/A   Overcast
10:53 PM 42.1°F 37.9°F 85% 30.32 in 6.0 miles NNW 4.6 mph - N/A   Partly Cloudy
11:26 PM 39.2°F 37.4°F 93% 30.32 in 1.8 miles Calm Calm - N/A   Clear
11:33 PM 41.0°F 37.4°F 87% 30.32 in 2.0 miles Calm Calm - N/A   Partly Cloudy
11:43 PM 41.0°F 37.4°F 87% 30.33 in 1.8 miles Calm Calm - N/A   Partly Cloudy
11:45 PM 39.2°F 37.4°F 93% 30.33 in 1.0 miles Calm Calm - N/A   Mist
11:53 PM 39.9°F 36.0°F 86% 30.33 in 0.5 miles East 4.6 mph - N/A Fog Fog
Moon Phase
Feb. 09 Feb. 10 Feb. 17 Feb. 25 Mar. 04
Sunrise:07:33 AM (PST) Moon Rise:06:47 AM (PST)2/9
Sunset:05:31 PM (PST) Moon Set:05:24 PM (PST)2/9

Copyright © 2014 The Weather Underground, Inc.